LiveATC.Net - Listen to live air traffic control over the Internet!


ICAO: VNKT  IATA: KTM   Airport: Tribhuvan International Airport
City: Kathmandu
Country: Nepal   Continent: Asia
VNKT METAR Weather: VNKT 251720Z 18004KT 7000 FEW015 SCT030 21/19 Q1015 NOSIG
VNKT Flight Activity (FlightAware)

VNKT Twr/App/Control
Feed Status: DOWN
Last heard on: 2018-03-13 04:51:02 (196 days 12 hours 57 minutes ago)
VNKT Twr/App/Control Audio Archives
FacilityFrequency
Kathmandu Approach120.600
Kathmandu Control126.500
Kathmandu Tower118.100
NOTE: Airport closes from 19:00 UTC to 00:00 UTC

NOTICE

Unauthorized use prohibited. See LiveATC.net Terms of Service


Find LiveATC Audio Streams


Airport/ARTCC Code

Frequency Search
(e.g., 124.400, 128.75)
Site-wide search
 


Browse LiveATC Feeds
Top 50 LiveATC Feeds
Bad Weather Areas

LiveATC FAQ
Offer a LiveATC Feed
Contact LiveATC.net
Press Inquiries

LiveATC on iPhone
LiveATC on Android

Windows Phone
Windows 8/10

LiveATC Mobile
(Mobile browser)

ATC Audio Archives
Interesting Recordings

LiveATC Forums


Home Page
About LiveATC.net
Make a Donation
Terms of Use
Privacy Policy

Canadian Air Freqs

AIRMETs/SIGMETs

FAA Airport Status
Nat'l Airspace Status
Arrival Demand Charts


Server Software By:
Icecast.org
Liquidsoap